Location: Bremen
(53.0793°N, 8.8017°E)
Time: 17:47:37
(UTC+01:00)

Vanguard 1 Rocket - Pass Details

Date: 06 December 2021
Orbit: 651 x 4224 km, 34.3° (Epoch: 18 January)

Event Time Altitude Azimuth Distance (km) Brightness Sun altitude
Rises 02:23:09 0° 217° (SW) 4,380 - -51.0°
Reaches altitude 10° 02:26:08 10° 205° (SSW) 3,791 - -50.7°
Maximum altitude 02:34:32 28° 151° (SSE) 3,595 - -49.7°
Exits shadow 02:36:05 27° 141° (SE) 3,793 10.4 -49.5°
Drops below altitude 10° 02:48:06 10° 103° (ESE) 6,268 12.0 -48.0°
Sets 02:55:02 0° 94° (E) 7,821 12.7 -47.1°
